Tracking 19709 objects as of 19-Jun-2019
HD Live streaming from Space Station
objects crossing your sky now

SBS 2

Track SBS 2 now!
SBS 2 is classified as:


NORAD ID: 12855
Int'l Code: 1981-096A
Perigee: 35,821.9 km
Apogee: 35,848.1 km
Inclination: 14.0 °
Period: 1,438.2 minutes
Semi major axis: 42205 km
RCS: 7.6855 m2 (large)
Launch date: September 24, 1981
Source: United States (US)
Launch site: AIR FORCE EASTERN TEST RANGE (AFETR)
aabbcc
Your satellite tracking list
Your tracking list is empty




NASA's NSSDC Master Catalog

Two Line Element Set (TLE):
1 12855U 81096A   19169.61438321 +.00000077 +00000-0 +00000-0 0  9993
2 12855 014.0193 342.5675 0003099 131.8526 234.1916 01.00124820093028
Source of the keplerian elements: AFSPC